CW9854 Weather Reports


time (UTC)temp
C
wind
direction
speed
KPH
gust
KPH
rain 1hr
cm
rain 24hr
cm
rain mn
cm
humidity
%
barometer
mb
20260504031003 11 228 4.8 8.0 0.00 0.00 0.00 58 1008.5
20260504030503 11 224 3.2 6.4 0.00 0.00 0.00 59 1008.6
20260504030003 11 225 3.2 11.3 0.00 0.00 0.00 58 1008.5
20260504025718 11 231 4.8 11.3 0.00 0.00 0.00 57 1008.5
20260504025003 11 241 4.8 8.0 0.00 0.00 0.00 57 1008.6
20260504024503 11 237 4.8 11.3 0.00 0.00 0.00 59 1008.5
20260504024216 11 235 4.8 11.3 0.00 0.00 0.00 59 1008.6
20260504023503 11 228 4.8 9.7 0.00 0.00 0.00 60 1008.6
20260504023003 11 223 3.2 9.7 0.00 0.00 0.00 60 1008.6
20260504022503 11 224 4.8 11.3 0.00 0.00 0.00 59 1008.6
20260504022003 11 228 4.8 11.3 0.00 0.00 0.00 60 1008.7
20260504021503 11 230 4.8 8.0 0.00 0.00 0.00 60 1008.6
20260504021003 11 232 4.8 11.3 0.00 0.00 0.00 58 1008.6
20260504020503 11 236 4.8 11.3 0.00 0.00 0.00 58 1008.7
20260504020006 11 235 6.4 12.9 0.00 0.00 0.00 58 1008.7
20260504015717 11 229 4.8 14.5 0.00 0.00 0.00 58 1008.7
20260504015003 12 217 4.8 14.5 0.00 0.00 0.00 57 1008.7
20260504014503 12 222 4.8 9.7 0.00 0.00 0.00 55 1008.7
20260504014218 12 229 4.8 11.3 0.00 0.00 0.00 55 1008.6
20260504013503 12 244 6.4 11.3 0.00 0.00 0.00 55 1008.7
20260504013218 12 244 6.4 11.3 0.00 0.00 0.00 55 1008.5
20260504012505 12 239 4.8 11.3 0.00 0.00 0.00 55 1008.5
20260504012003 11 237 4.8 11.3 0.00 0.00 0.00 57 1008.5
20260504011503 11 238 4.8 11.3 0.00 0.00 0.00 55 1008.7
20260504011218 11 238 4.8 11.3 0.00 0.00 0.00 57 1008.6
20260504010717 11 244 4.8 11.3 0.00 0.00 0.00 55 1008.6
20260504010004 11 242 4.8 11.3 0.00 0.00 0.00 56 1008.6
20260504005717 11 238 4.8 11.3 0.00 0.00 0.00 57 1008.6
20260504005004 11 241 6.4 11.3 0.00 0.00 0.00 57 1008.6
20260504004504 11 237 4.8 11.3 0.00 0.00 0.00 57 1008.6
20260504004003 11 239 4.8 11.3 0.00 0.00 0.00 59 1008.8
20260504003506 11 241 4.8 11.3 0.00 0.00 0.00 58 1008.6
20260504003003 11 239 6.4 12.9 0.00 0.00 0.00 59 1008.7
20260504002503 11 240 4.8 12.9 0.00 0.00 0.00 58 1008.7
20260504002003 11 236 4.8 14.5 0.00 0.00 0.00 60 1008.7
20260504001503 11 226 4.8 14.5 0.00 0.00 0.00 60 1008.7
20260504001003 11 229 3.2 8.0 0.00 0.00 0.00 63 1008.8
20260504000503 11 240 3.2 6.4 0.00 0.00 0.00 63 1008.9
20260504000003 11 242 1.6 4.8 0.00 0.00 0.00 66 1009.0
20260503235503 11 248 1.6 4.8 0.00 0.00 0.00 67 1008.9
20260503235004 11 245 3.2 4.8 0.00 0.00 0.00 69 1009.0
20260503234718 11 239 3.2 4.8 0.00 0.00 0.00 68 1009.0
20260503234003 10 215 3.2 11.3 0.00 0.00 0.00 70 1009.0
20260503233503 11 242 1.6 9.7 0.00 0.00 0.00 71 1009.0
20260503233217 11 252 3.2 4.8 0.00 0.00 0.00 73 1009.0
20260503232503 11 256 3.2 4.8 0.00 0.00 0.00 68 1009.2
20260503232003 11 250 3.2 8.0 0.00 0.00 0.00 68 1009.1
20260503231503 11 247 3.2 8.0 0.00 0.00 0.00 67 1009.3
20260503231003 11 250 3.2 6.4 0.00 0.00 0.00 66 1009.2
20260503230503 11 253 3.2 6.4 0.00 0.00 0.00 67 1009.2
20260503230003 11 249 3.2 4.8 0.00 0.00 0.00 69 1009.3
20260503225718 11 246 1.6 4.8 0.00 0.00 0.00 68 1009.1
20260503225003 11 252 3.2 4.8 0.00 0.00 0.00 67 1009.3
20260503224549 11 247 3.2 6.4 0.00 0.00 0.00 65 1009.4
20260503224003 11 245 4.8 9.7 0.00 0.00 0.00 66 1009.4
20260503223503 11 247 4.8 11.3 0.00 0.00 0.00 66 1009.4
20260503223217 11 248 4.8 11.3 0.00 0.00 0.00 65 1009.4
20260503222503 11 247 6.4 12.9 0.00 0.00 0.00 64 1009.5
20260503222003 11 247 6.4 12.9 0.00 0.00 0.00 64 1009.4
20260503221503 11 241 6.4 12.9 0.00 0.00 0.00 63 1009.3
20260503221003 11 236 6.4 12.9 0.00 0.00 0.00 63 1009.1
20260503220718 11 236 6.4 12.9 0.00 0.00 0.00 62 1009.1
20260503220003 11 234 6.4 12.9 0.00 0.00 0.00 62 1009.0
20260503215503 11 240 6.4 12.9 0.00 0.00 0.00 61 1008.9
20260503215217 11 241 6.4 12.9 0.00 0.00 0.00 62 1008.8
20260503214718 11 235 6.4 11.3 0.00 0.00 0.00 62 1008.8
20260503214003 11 227 4.8 11.3 0.00 0.00 0.00 62 1008.8
20260503213718 11 228 4.8 11.3 0.00 0.00 0.00 63 1008.8
20260503213003 11 230 3.2 8.0 0.00 0.00 0.00 66 1008.6
20260503212503 11 222 3.2 14.5 0.00 0.00 0.00 65 1008.7
20260503212003 11 219 3.2 14.5 0.00 0.00 0.00 65 1008.8
20260503211504 10 228 3.2 6.4 0.00 0.00 0.00 66 1008.8
20260503211003 10 217 4.8 12.9 0.00 0.00 0.00 64 1008.8
20260503210717 11 211 4.8 16.1 0.00 0.00 0.00 65 1008.8
20260503210004 11 225 4.8 16.1 0.00 0.00 0.00 64 1008.9
20260503205503 11 221 4.8 19.3 0.00 0.00 0.00 64 1008.9
20260503205003 11 215 4.8 19.3 0.00 0.00 0.00 63 1008.9
20260503204503 11 217 4.8 14.5 0.00 0.00 0.00 63 1009.0
20260503204218 11 221 6.4 14.5 0.00 0.00 0.00 62 1009.0
20260503203503 11 213 4.8 14.5 0.00 0.00 0.00 62 1009.2
20260503203003 11 212 4.8 14.5 0.00 0.00 0.00 61 1009.1
20260503202503 11 220 4.8 14.5 0.00 0.00 0.00 59 1009.2
20260503202003 12 220 4.8 14.5 0.00 0.00 0.00 60 1009.1
20260503201503 12 221 4.8 11.3 0.00 0.00 0.00 58 1009.2
20260503201003 12 226 4.8 11.3 0.00 0.00 0.00 58 1009.2
20260503200503 12 230 4.8 9.7 0.00 0.00 0.00 57 1009.3
20260503200218 12 234 4.8 9.7 0.00 0.00 0.00 56 1009.3
20260503195717 12 225 4.8 11.3 0.00 0.00 0.00 56 1009.4
20260503195003 12 216 6.4 12.9 0.00 0.00 0.00 56 1009.5
20260503194503 12 226 6.4 12.9 0.00 0.00 0.00 53 1009.5
20260503194218 12 223 4.8 14.5 0.00 0.00 0.00 57 1009.6
20260503193503 12 239 6.4 14.5 0.00 0.00 0.00 56 1009.9
20260503193003 12 245 6.4 12.9 0.00 0.00 0.00 53 1009.9
20260503192503 12 238 4.8 16.1 0.00 0.00 0.00 53 1010.0
20260503192008 12 238 6.4 16.1 0.00 0.00 0.00 54 1010.0
20260503191503 12 241 6.4 14.5 0.00 0.00 0.00 52 1010.2
20260503191003 13 246 6.4 12.9 0.00 0.00 0.00 51 1010.2
20260503190503 13 244 6.4 12.9 0.00 0.00 0.00 51 1010.3
20260503190003 12 238 6.4 14.5 0.00 0.00 0.00 52 1010.3
20260503185504 12 239 6.4 16.1 0.00 0.00 0.00 49 1010.3
20260503185003 12 241 8.0 16.1 0.00 0.00 0.00 50 1010.4
20260503184503 12 238 8.0 19.3 0.00 0.00 0.00 47 1010.4
20260503184003 12 232 8.0 19.3 0.00 0.00 0.00 48 1010.3
20260503183503 12 231 6.4 17.7 0.00 0.00 0.00 46 1010.5
20260503183003 12 228 6.4 17.7 0.00 0.00 0.00 48 1010.5
20260503182503 12 219 8.0 17.7 0.00 0.00 0.00 46 1010.7
20260503182004 12 215 8.0 19.3 0.00 0.00 0.00 46 1010.7
20260503181505 12 224 6.4 19.3 0.00 0.00 0.00 49 1010.9
20260503181003 12 228 4.8 12.9 0.00 0.00 0.00 50 1011.0
20260503180503 11 231 6.4 12.9 0.00 0.00 0.00 51 1011.0
20260503180004 11 218 6.4 20.9 0.00 0.00 0.00 51 1011.1
20260503175505 11 214 6.4 20.9 0.00 0.00 0.00 51 1011.2
20260503175217 11 215 8.0 20.9 0.00 0.00 0.00 53 1011.3
20260503174718 11 216 6.4 20.9 0.00 0.00 0.00 54 1011.4
20260503174003 11 236 6.4 14.5 0.00 0.00 0.00 53 1011.6
20260503173503 11 217 6.4 16.1 0.00 0.00 0.00 54 1011.7
20260503173003 11 220 6.4 16.1 0.00 0.00 0.00 53 1011.7
20260503172504 11 230 6.4 14.5 0.00 0.00 0.00 56 1011.7
20260503172219 11 233 6.4 14.5 0.00 0.00 0.00 49 1011.7
20260503171503 11 227 6.4 16.1 0.00 0.00 0.00 54 1011.7
20260503171003 11 219 4.8 16.1 0.00 0.00 0.00 60 1011.7
20260503170506 10 230 4.8 11.3 0.00 0.00 0.00 58 1011.9
20260503151003 10 215 4.8 11.3 0.00 0.00 0.00 62 1012.9
20260503150503 10 212 4.8 11.3 0.00 0.00 0.00 60 1012.8
20260503131003 7 226 3.2 12.9 0.00 0.00 0.00 80 1013.3
20260503130503 7 212 4.8 12.9 0.00 0.00 0.00 81 1013.3
20260503110503 0 0 0.0 0.0 0.00 0.00 0.00 93 1013.7
20260503090503 0 0 0.0 0.0 0.00 0.00 0.00 91 1013.7
20260503081503 0 0 0.0 0.0 0.00 0.00 0.00 91 1013.8
20260503081003 0 0 0.0 0.0 0.00 0.00 0.00 91 1013.7
20260503080503 0 0 0.0 0.0 0.00 0.00 0.00 91 1013.7
20260503080217 0 0 0.0 0.0 0.00 0.00 0.00 91 1013.7
20260503072503 0 0 0.0 0.0 0.00 0.00 0.00 90 1013.5
20260503072003 0 0 0.0 0.0 0.00 0.00 0.00 90 1013.5
20260503071503 0 0 0.0 0.0 0.00 0.00 0.00 90 1013.5
20260503071003 1 0 0.0 0.0 0.00 0.00 0.00 90 1013.5
20260503070503 1 0 0.0 0.0 0.00 0.00 0.00 90 1013.5
20260503055003 1 0 0.0 0.0 0.00 0.00 0.00 87 1013.9
20260503054504 2 201 0.0 1.6 0.00 0.00 0.00 87 1013.8
20260503054003 2 201 0.0 1.6 0.00 0.00 0.00 86 1014.0
20260503053717 2 201 0.0 1.6 0.00 0.00 0.00 86 1014.0
20260503053003 2 200 0.0 1.6 0.00 0.00 0.00 86 1014.0
20260503052503 2 200 0.0 1.6 0.00 0.00 0.00 86 1014.1
20260503052003 2 201 0.0 1.6 0.00 0.00 0.00 85 1014.1
20260503051718 2 201 0.0 1.6 0.00 0.00 0.00 85 1014.2
20260503051003 2 201 0.0 1.6 0.00 0.00 0.00 84 1014.2
20260503050717 2 201 0.0 1.6 0.00 0.00 0.00 84 1014.2
20260503050003 2 199 0.0 3.2 0.00 0.00 0.00 83 1014.2
20260503045503 2 195 0.0 6.4 0.00 0.00 0.00 83 1014.3
20260503045003 2 194 0.0 6.4 0.00 0.00 0.00 83 1014.4
20260503044503 3 188 0.0 1.6 0.00 0.00 0.00 82 1014.4
20260503044003 3 188 0.0 1.6 0.00 0.00 0.00 81 1014.3
20260503043519 3 188 0.0 3.2 0.00 0.00 0.00 81 1014.4
20260503043003 3 188 1.6 3.2 0.00 0.00 0.00 81 1014.4
20260503042503 3 188 0.0 3.2 0.00 0.00 0.00 80 1014.4
20260503042003 3 188 0.0 1.6 0.00 0.00 0.00 80 1014.4
20260503041717 3 188 0.0 1.6 0.00 0.00 0.00 80 1014.4
20260503041003 3 188 0.0 1.6 0.00 0.00 0.00 79 1014.5
20260503040503 3 188 0.0 1.6 0.00 0.00 0.00 79 1014.7
20260503040004 3 188 0.0 1.6 0.00 0.00 0.00 78 1014.6
20260503035503 3 0 0.0 0.0 0.00 0.00 0.00 79 1014.5
20260503035003 3 0 0.0 0.0 0.00 0.00 0.00 78 1014.6
20260503034503 4 0 0.0 0.0 0.00 0.00 0.00 79 1014.6
20260503034003 4 0 0.0 0.0 0.00 0.00 0.00 79 1014.6
20260503033503 4 188 0.0 1.6 0.00 0.00 0.00 79 1014.6
20260503033003 4 188 0.0 1.6 0.00 0.00 0.00 78 1014.7
20260503032503 4 188 0.0 1.6 0.00 0.00 0.00 79 1014.7
20260503032218 4 0 0.0 0.0 0.00 0.00 0.00 79 1014.7
20260503031503 4 188 0.0 1.6 0.00 0.00 0.00 78 1014.7
20260503031218 4 188 0.0 1.6 0.00 0.00 0.00 78 1014.7